Overview Statistics Trail Chart Weather Telemetry Raw packets
 

This is the latest recevied weather packets stored in our database for station/object K4KMJ. If no packets are shown the sender has not sent any weather packets the latest 10 day(s).

<< 106 107 108 109 110 111 112 >>
Time Temp. Humidity Pressure Rain* Wind** Luminosity Snow
1787853427 33.33° C 70% 1018 hPa 0 mm - 783 W/m² -
1787853126 33.33° C 71% 1018.3 hPa 0 mm - 806 W/m² -
1787852821 33.33° C 70% 1018.4 hPa 0 mm - 807 W/m² -
1787852520 33.33° C 72% 1018.6 hPa 0 mm - 834 W/m² -
1787852215 32.22° C 73% 1018.5 hPa 0 mm - 853 W/m² -
1787851909 32.78° C 73% 1018.8 hPa 0 mm - 702 W/m² -
1787851609 32.78° C 71% 1019 hPa 0 mm - 470 W/m² -
1787851304 32.78° C 72% 1018.8 hPa 0 mm - 854 W/m² -
1787850999 32.78° C 73% 1018.7 hPa 0 mm - 892 W/m² -
1787850695 32.78° C 73% 1018.9 hPa 0 mm - 936 W/m² -
1787850390 32.78° C 74% 1018.8 hPa 0 mm - 962 W/m² -
1787850086 32.78° C 74% 1018.8 hPa 0 mm - 968 W/m² -
1787849785 32.78° C 74% 1019.1 hPa 0 mm - 340 W/m² -
1787849480 32.22° C 76% 1019.1 hPa 0 mm - 935 W/m² -
1787849179 32.78° C 74% 1019.1 hPa 0 mm - 822 W/m² -
1787848878 32.22° C 75% 1019.3 hPa 0 mm - 879 W/m² -
1787848573 32.78° C 76% 1019.3 hPa 0 mm - 846 W/m² -
1787848267 32.22° C 76% 1019.3 hPa 0 mm - 831 W/m² -
1787847962 31.67° C 77% 1019.4 hPa 0 mm - 882 W/m² -
1787847661 31.67° C 78% 1019.4 hPa 0 mm - 193 W/m² -
1787847357 32.22° C 78% 1019.6 hPa 0 mm - 859 W/m² -
1787847052 31.67° C 78% 1019.6 hPa 0 mm - 879 W/m² -
1787846747 31.11° C 79% 1019.6 hPa 0 mm - 160 W/m² -
1787846438 31.67° C 79% 1019.7 hPa 0 mm - 780 W/m² -
1787846133 31.67° C 81% 1019.5 hPa 0 mm - 803 W/m² -

* Rain latest hour (hover to see other rain measurements)
** Current wind speed in m/s (hover to see current wind gust speed)